Regional Weather Roundup
Issued by NWS

Home | Current Version | Previous Version | Graphics & Text | Print | Product List | Glossary On
Versions: 1 2 3 4 5 6 7 8 9 10 11 12 13 14 15 16 17 18 19 20 21 22 23 24 25 26 27 28 29 30 31 32 33 34 35 36 37 38 39 40 41 42 43 44 45 46 47 48 49 50
000
ASUS43 KBIS 240510
RWRND

NORTH DAKOTA REGIONAL WEATHER ROUNDUP
NATIONAL WEATHER SERVICE BISMARCK ND
1100 PM CST TUE JAN 23 2018

NOTE: "FAIR" INDICATES FEW OR NO CLOUDS BELOW 12,000 FEET WITH NO
SIGNIFICANT WEATHER AND/OR OBSTRUCTIONS TO VISIBILITY.


NDZ001>003-009>011-017-240600-
NORTHWEST NORTH DAKOTA

CITY           SKY/WX    TMP DP  RH WIND       PRES   REMARKS
WILLISTON      CLEAR      8   6  92 SW3       30.07F
MINOT          CLEAR     13   9  84 S8        30.07F WCI   2
MINOT AFB      CLEAR     11   8  87 S5        30.07S WCI   3
$$

NDZ018>021-031>035-040>046-240600-
SOUTHWEST NORTH DAKOTA

CITY           SKY/WX    TMP DP  RH WIND       PRES   REMARKS
BISMARCK       PTCLDY    11  10  96 NE6       30.16R FOG     WCI   1
DICKINSON      CLEAR     22  17  81 W13       30.07S WCI  10
GARRISON         N/A      7   4  87 CALM      30.10F
HETTINGER ARPT CLEAR     17  13  84 NW7       30.13S WCI   8
$$

NDZ004>008-012>016-024-026-027-054-240600-
NORTHEAST NORTH DAKOTA

CITY           SKY/WX    TMP DP  RH WIND       PRES   REMARKS
GRAND FORKS    CLOUDY    24  19  81 W7        30.15S WCI  16
GRND FRKS AFB  CLOUDY    24  18  77 W5        30.14S WCI  18
DEVILS LAKE    CLOUDY    22  20  92 W9        30.13S WCI  12
$$

NDZ022-023-025-028>030-036>039-047>053-240600-
SOUTHEAST NORTH DAKOTA

CITY           SKY/WX    TMP DP  RH WIND       PRES   REMARKS
FARGO          CLOUDY    23  19  85 NW6       30.17S WCI  16
JAMESTOWN      CLOUDY    20  19  96 NW9       30.15S WCI   9
$$





USA.gov is the U.S. government's official web portal to all federal, state and local government web resources and services.